Saint Bonnet de Bellac- Haute Vienne - France
Donnes mto: mercredi, 22/02/2012
Date Horaire Temp. E. Hum. E. P.atmo. Pluie Vent Direction Direction Ensoleilleme Solaire P. de rose Temp au vent Rafales
22/02/2012 00:00 -0,6 C 73 % 1029,7 hPa 0,0 mm 0,0 km/h (0 Bft) NE 45 0 min 0 W/m -4,8 C -0,6 C 0,0 km/h (0 Bft)
22/02/2012 00:10 -0,9 C 74 % 1029,7 hPa 0,0 mm 0,0 km/h (0 Bft) NE 45 0 min 0 W/m -4,9 C -0,9 C 0,0 km/h (0 Bft)
22/02/2012 00:20 -1,2 C 74 % 1029,7 hPa 0,0 mm 0,0 km/h (0 Bft) NE 45 0 min 0 W/m -5,2 C -1,2 C 0,0 km/h (0 Bft)
22/02/2012 00:30 -1,5 C 74 % 1029,9 hPa 0,0 mm 0,7 km/h (0 Bft) N-NE 22 0 min 0 W/m -5,5 C -1,5 C 4,3 km/h (1 Bft)
22/02/2012 00:40 -1,7 C 75 % 1029,9 hPa 0,0 mm 0,4 km/h (0 Bft) N-NE 22 0 min 0 W/m -5,5 C -1,7 C 0,4 km/h (0 Bft)
22/02/2012 00:50 -1,7 C 76 % 1029,9 hPa 0,0 mm 1,8 km/h (1 Bft) NE 45 0 min 0 W/m -5,4 C -1,7 C 4,3 km/h (1 Bft)
22/02/2012 01:00 -1,6 C 77 % 1029,7 hPa 0,0 mm 0,0 km/h (0 Bft) NE 45 0 min 0 W/m -5,1 C -1,6 C 0,0 km/h (0 Bft)
22/02/2012 01:10 -1,6 C 77 % 1029,8 hPa 0,0 mm 0,0 km/h (0 Bft) N-NE 22 0 min 0 W/m -5,1 C -1,6 C 0,0 km/h (0 Bft)
22/02/2012 01:20 -1,6 C 77 % 1029,8 hPa 0,0 mm 0,0 km/h (0 Bft) N-NE 22 0 min 0 W/m -5,1 C -1,6 C 0,0 km/h (0 Bft)
22/02/2012 01:30 -1,8 C 77 % 1029,8 hPa 0,0 mm 0,0 km/h (0 Bft) NE 45 0 min 0 W/m -5,3 C -1,8 C 0,0 km/h (0 Bft)
22/02/2012 01:40 -2,1 C 78 % 1029,7 hPa 0,0 mm 0,0 km/h (0 Bft) NE 45 0 min 0 W/m -5,4 C -2,1 C 0,0 km/h (0 Bft)
22/02/2012 01:50 -2,0 C 78 % 1029,5 hPa 0,0 mm 2,9 km/h (1 Bft) E 90 0 min 0 W/m -5,3 C -2,0 C 2,9 km/h (1 Bft)
22/02/2012 02:02 -1,6 C 78 % 1029,5 hPa 0,0 mm 1,1 km/h (1 Bft) E 90 0 min 0 W/m -4,9 C -1,6 C 1,1 km/h (1 Bft)
22/02/2012 02:10 -1,3 C 78 % 1029,6 hPa 0,0 mm 0,7 km/h (0 Bft) E-NE 67 0 min 0 W/m -4,6 C -1,3 C 3,6 km/h (1 Bft)
22/02/2012 02:20 -1,4 C 77 % 1029,7 hPa 0,0 mm 0,0 km/h (0 Bft) NE 45 0 min 0 W/m -4,9 C -1,4 C 0,0 km/h (0 Bft)
22/02/2012 02:30 -1,4 C 77 % 1029,6 hPa 0,0 mm 0,0 km/h (0 Bft) E 90 0 min 0 W/m -4,9 C -1,4 C 0,0 km/h (0 Bft)
22/02/2012 02:40 -1,5 C 77 % 1029,5 hPa 0,0 mm 0,0 km/h (0 Bft) E-NE 67 0 min 0 W/m -5,0 C -1,5 C 0,0 km/h (0 Bft)
22/02/2012 02:50 -1,5 C 77 % 1029,4 hPa 0,0 mm 2,2 km/h (1 Bft) NE 45 0 min 0 W/m -5,0 C -1,5 C 4,3 km/h (1 Bft)
22/02/2012 03:00 -1,4 C 77 % 1029,5 hPa 0,0 mm 0,0 km/h (0 Bft) E 90 0 min 0 W/m -4,9 C -1,4 C 0,0 km/h (0 Bft)
22/02/2012 03:10 -1,6 C 77 % 1029,4 hPa 0,0 mm 0,0 km/h (0 Bft) E-NE 67 0 min 0 W/m -5,1 C -1,6 C 0,0 km/h (0 Bft)
22/02/2012 03:20 -1,9 C 77 % 1029,3 hPa 0,0 mm 0,0 km/h (0 Bft) E-NE 67 0 min 0 W/m -5,4 C -1,9 C 0,0 km/h (0 Bft)
22/02/2012 03:30 -2,2 C 77 % 1029,1 hPa 0,0 mm 0,0 km/h (0 Bft) NE 45 0 min 0 W/m -5,7 C -2,2 C 0,0 km/h (0 Bft)
22/02/2012 03:40 -2,6 C 77 % 1028,9 hPa 0,0 mm 0,0 km/h (0 Bft) E 90 0 min 0 W/m -6,1 C -2,6 C 0,0 km/h (0 Bft)
22/02/2012 03:50 -2,6 C 78 % 1028,7 hPa 0,0 mm 0,0 km/h (0 Bft) E-SE 112 0 min 0 W/m -5,9 C -2,6 C 0,0 km/h (0 Bft)
22/02/2012 04:00 -2,3 C 79 % 1028,5 hPa 0,0 mm 0,0 km/h (0 Bft) SE 135 0 min 0 W/m -5,4 C -2,3 C 2,9 km/h (1 Bft)
22/02/2012 04:10 -2,2 C 79 % 1028,7 hPa 0,0 mm 0,0 km/h (0 Bft) E-NE 67 0 min 0 W/m -5,3 C -2,2 C 0,0 km/h (0 Bft)
22/02/2012 04:20 -2,3 C 79 % 1028,8 hPa 0,0 mm 0,0 km/h (0 Bft) E-NE 67 0 min 0 W/m -5,4 C -2,3 C 0,0 km/h (0 Bft)
22/02/2012 04:30 -2,6 C 79 % 1028,8 hPa 0,0 mm 0,0 km/h (0 Bft) NE 45 0 min 0 W/m -5,7 C -2,6 C 0,0 km/h (0 Bft)
22/02/2012 04:40 -2,9 C 79 % 1028,9 hPa 0,0 mm 0,0 km/h (0 Bft) N-NE 22 0 min 0 W/m -6,0 C -2,9 C 0,0 km/h (0 Bft)
22/02/2012 04:50 -3,2 C 79 % 1028,8 hPa 0,0 mm 0,0 km/h (0 Bft) N-NE 22 0 min 0 W/m -6,3 C -3,2 C 0,0 km/h (0 Bft)
22/02/2012 05:00 -3,6 C 79 % 1028,8 hPa 0,0 mm 0,0 km/h (0 Bft) N 360 0 min 0 W/m -6,7 C -3,6 C 0,0 km/h (0 Bft)
22/02/2012 05:10 -3,7 C 79 % 1028,7 hPa 0,0 mm 0,0 km/h (0 Bft) N-NE 22 0 min 0 W/m -6,8 C -3,7 C 3,2 km/h (1 Bft)
22/02/2012 05:20 -3,7 C 80 % 1028,7 hPa 0,0 mm 0,0 km/h (0 Bft) NE 45 0 min 0 W/m -6,6 C -3,7 C 0,0 km/h (0 Bft)
22/02/2012 05:30 -3,7 C 81 % 1028,8 hPa 0,0 mm 1,4 km/h (1 Bft) NE 45 0 min 0 W/m -6,5 C -3,7 C 3,2 km/h (1 Bft)
22/02/2012 05:40 -3,6 C 81 % 1028,8 hPa 0,0 mm 0,0 km/h (0 Bft) N-NO 337 0 min 0 W/m -6,4 C -3,6 C 1,4 km/h (1 Bft)
22/02/2012 05:50 -3,5 C 82 % 1028,9 hPa 0,0 mm 2,5 km/h (1 Bft) N-NE 22 0 min 0 W/m -6,1 C -3,5 C 6,1 km/h (2 Bft)
22/02/2012 06:00 -3,4 C 82 % 1028,8 hPa 0,0 mm 0,0 km/h (0 Bft) N 360 0 min 0 W/m -6,0 C -3,4 C 3,2 km/h (1 Bft)
22/02/2012 06:10 -3,6 C 82 % 1028,9 hPa 0,0 mm 0,0 km/h (0 Bft) N-NE 22 0 min 0 W/m -6,2 C -3,6 C 0,0 km/h (0 Bft)
22/02/2012 06:20 -3,7 C 82 % 1028,9 hPa 0,0 mm 0,0 km/h (0 Bft) N-NE 22 0 min 0 W/m -6,3 C -3,7 C 0,0 km/h (0 Bft)
22/02/2012 06:30 -3,8 C 83 % 1028,8 hPa 0,0 mm 0,0 km/h (0 Bft) NE 45 0 min 0 W/m -6,3 C -3,8 C 0,0 km/h (0 Bft)
22/02/2012 06:40 -3,9 C 83 % 1028,9 hPa 0,0 mm 0,0 km/h (0 Bft) N-NE 22 0 min 0 W/m -6,4 C -3,9 C 0,0 km/h (0 Bft)
22/02/2012 06:50 -4,0 C 82 % 1028,8 hPa 0,0 mm 0,0 km/h (0 Bft) N 360 0 min 0 W/m -6,6 C -4,0 C 0,0 km/h (0 Bft)
22/02/2012 07:00 -4,1 C 82 % 1028,7 hPa 0,0 mm 0,0 km/h (0 Bft) N-NE 22 0 min 0 W/m -6,7 C -4,1 C 0,0 km/h (0 Bft)
22/02/2012 07:10 -4,4 C 82 % 1028,7 hPa 0,0 mm 0,0 km/h (0 Bft) N-NE 22 0 min 0 W/m -7,0 C -4,4 C 0,0 km/h (0 Bft)
22/02/2012 07:20 -4,5 C 83 % 1028,7 hPa 0,0 mm 0,0 km/h (0 Bft) E-SE 112 0 min 0 W/m -6,9 C -4,5 C 0,0 km/h (0 Bft)
22/02/2012 07:30 -4,3 C 83 % 1028,8 hPa 0,0 mm 3,6 km/h (1 Bft) E 90 0 min 0 W/m -6,7 C -4,3 C 6,5 km/h (2 Bft)
22/02/2012 07:40 -3,9 C 84 % 1028,8 hPa 0,0 mm 2,5 km/h (1 Bft) E-SE 112 0 min 0 W/m -6,2 C -3,9 C 4,3 km/h (1 Bft)
22/02/2012 07:50 -3,7 C 84 % 1028,9 hPa 0,0 mm 0,7 km/h (0 Bft) E-SE 112 0 min 0 W/m -6,0 C -3,7 C 0,7 km/h (0 Bft)
22/02/2012 08:00 -3,5 C 84 % 1029,0 hPa 0,0 mm 1,4 km/h (1 Bft) E 90 2 min 0 W/m -5,8 C -3,5 C 3,2 km/h (1 Bft)
22/02/2012 08:10 -3,3 C 84 % 1028,8 hPa 0,0 mm 1,1 km/h (1 Bft) SE 135 2 min 0 W/m -5,6 C -3,3 C 4,3 km/h (1 Bft)
22/02/2012 08:20 -3,2 C 84 % 1028,9 hPa 0,0 mm 0,4 km/h (0 Bft) E 90 2 min 0 W/m -5,5 C -3,2 C 4,0 km/h (1 Bft)
22/02/2012 08:30 -3,3 C 84 % 1029,1 hPa 0,0 mm 0,0 km/h (0 Bft) E-NE 67 2 min 0 W/m -5,6 C -3,3 C 0,0 km/h (0 Bft)
22/02/2012 08:40 -3,2 C 84 % 1028,9 hPa 0,0 mm 3,2 km/h (1 Bft) SE 135 2 min 0 W/m -5,5 C -3,2 C 4,0 km/h (1 Bft)
22/02/2012 08:50 -2,6 C 84 % 1029,0 hPa 0,0 mm 1,4 km/h (1 Bft) E 90 2 min 0 W/m -4,9 C -2,6 C 4,3 km/h (1 Bft)
22/02/2012 09:00 -1,8 C 84 % 1029,3 hPa 0,0 mm 0,0 km/h (0 Bft) E 90 2 min 0 W/m -4,1 C -1,8 C 0,0 km/h (0 Bft)
22/02/2012 09:10 -1,2 C 81 % 1029,5 hPa 0,0 mm 0,0 km/h (0 Bft) N 360 2 min 0 W/m -4,0 C -1,2 C 0,0 km/h (0 Bft)
22/02/2012 09:20 -0,8 C 81 % 1029,6 hPa 0,0 mm 0,4 km/h (0 Bft) E-NE 67 2 min 0 W/m -3,6 C -0,8 C 3,6 km/h (1 Bft)
22/02/2012 09:30 -0,1 C 79 % 1029,6 hPa 0,0 mm 0,0 km/h (0 Bft) E 90 2 min 0 W/m -3,3 C -0,1 C 0,0 km/h (0 Bft)
22/02/2012 09:40 0,8 C 78 % 1029,7 hPa 0,0 mm 0,0 km/h (0 Bft) E-NE 67 2 min 0 W/m -2,6 C 0,8 C 0,0 km/h (0 Bft)
22/02/2012 09:50 1,7 C 76 % 1029,8 hPa 0,0 mm 0,0 km/h (0 Bft) E-NE 67 2 min 0 W/m -2,1 C 1,7 C 0,0 km/h (0 Bft)
22/02/2012 10:00 2,6 C 74 % 1029,8 hPa 0,0 mm 0,7 km/h (0 Bft) E-NE 67 2 min 0 W/m -1,6 C 2,6 C 3,2 km/h (1 Bft)
22/02/2012 10:10 3,3 C 72 % 1029,9 hPa 0,0 mm 0,7 km/h (0 Bft) NE 45 2 min 0 W/m -1,3 C 3,3 C 3,6 km/h (1 Bft)
22/02/2012 10:20 3,8 C 71 % 1029,9 hPa 0,0 mm 4,3 km/h (1 Bft) N-NE 22 2 min 0 W/m -1,0 C 3,8 C 4,3 km/h (1 Bft)
22/02/2012 10:30 3,9 C 70 % 1030,0 hPa 0,0 mm 6,1 km/h (2 Bft) N-NE 22 2 min 0 W/m -1,1 C 2,4 C 7,9 km/h (2 Bft)
22/02/2012 10:40 4,5 C 70 % 1030,1 hPa 0,0 mm 4,0 km/h (1 Bft) N 360 2 min 0 W/m -0,5 C 4,5 C 6,1 km/h (2 Bft)
22/02/2012 10:50 5,1 C 69 % 1030,1 hPa 0,0 mm 2,5 km/h (1 Bft) NE 45 2 min 0 W/m -0,1 C 5,1 C 4,0 km/h (1 Bft)
22/02/2012 11:00 5,6 C 68 % 1030,2 hPa 0,0 mm 1,4 km/h (1 Bft) N-NE 22 2 min 0 W/m 0,2 C 5,6 C 1,4 km/h (1 Bft)
22/02/2012 11:10 6,4 C 66 % 1030,5 hPa 0,0 mm 2,9 km/h (1 Bft) NE 45 2 min 0 W/m 0,5 C 6,4 C 4,3 km/h (1 Bft)
22/02/2012 11:20 7,0 C 63 % 1030,3 hPa 0,0 mm 4,0 km/h (1 Bft) NE 45 2 min 0 W/m 0,4 C 7,0 C 4,3 km/h (1 Bft)
22/02/2012 11:30 7,7 C 63 % 1030,3 hPa 0,0 mm 0,7 km/h (0 Bft) N-NE 22 2 min 0 W/m 1,1 C 7,7 C 3,6 km/h (1 Bft)
22/02/2012 11:40 8,5 C 60 % 1030,2 hPa 0,0 mm 3,6 km/h (1 Bft) NE 45 2 min 0 W/m 1,2 C 8,5 C 5,8 km/h (2 Bft)
22/02/2012 11:50 9,2 C 57 % 1030,1 hPa 0,0 mm 2,2 km/h (1 Bft) E-NE 67 2 min 0 W/m 1,1 C 9,2 C 4,0 km/h (1 Bft)
22/02/2012 12:00 10,0 C 55 % 1030,1 hPa 0,0 mm 0,0 km/h (0 Bft) E-NE 67 2 min 0 W/m 1,4 C 10,0 C 0,0 km/h (0 Bft)
22/02/2012 12:10 10,4 C 54 % 1029,8 hPa 0,0 mm 2,2 km/h (1 Bft) SE 135 2 min 0 W/m 1,5 C 10,4 C 4,0 km/h (1 Bft)
22/02/2012 12:20 11,1 C 53 % 1029,8 hPa 0,0 mm 2,2 km/h (1 Bft) E 90 2 min 0 W/m 1,9 C 11,1 C 4,3 km/h (1 Bft)
22/02/2012 12:30 11,6 C 50 % 1029,9 hPa 0,0 mm 1,4 km/h (1 Bft) E-NE 67 2 min 0 W/m 1,5 C 11,6 C 4,0 km/h (1 Bft)
22/02/2012 12:40 11,9 C 49 % 1029,8 hPa 0,0 mm 2,5 km/h (1 Bft) NE 45 2 min 0 W/m 1,5 C 11,9 C 2,9 km/h (1 Bft)
22/02/2012 12:50 12,0 C 48 % 1029,7 hPa 0,0 mm 0,0 km/h (0 Bft) E-NE 67 2 min 0 W/m 1,3 C 12,0 C 0,0 km/h (0 Bft)
22/02/2012 13:00 12,4 C 47 % 1029,6 hPa 0,0 mm 2,5 km/h (1 Bft) E 90 2 min 0 W/m 1,4 C 12,4 C 4,3 km/h (1 Bft)
22/02/2012 13:10 12,5 C 45 % 1029,6 hPa 0,0 mm 0,4 km/h (0 Bft) NE 45 2 min 0 W/m 0,9 C 12,5 C 3,2 km/h (1 Bft)
22/02/2012 13:20 12,8 C 45 % 1029,7 hPa 0,0 mm 2,2 km/h (1 Bft) E 90 2 min 0 W/m 1,2 C 12,8 C 4,3 km/h (1 Bft)
22/02/2012 13:30 13,1 C 43 % 1029,5 hPa 0,0 mm 0,7 km/h (0 Bft) NE 45 2 min 0 W/m 0,8 C 13,1 C 4,0 km/h (1 Bft)
22/02/2012 13:40 13,2 C 44 % 1029,3 hPa 0,0 mm 5,8 km/h (2 Bft) N 360 2 min 0 W/m 1,2 C 13,2 C 9,0 km/h (2 Bft)
22/02/2012 13:50 13,2 C 42 % 1029,2 hPa 0,0 mm 1,8 km/h (1 Bft) NE 45 2 min 0 W/m 0,6 C 13,2 C 1,8 km/h (1 Bft)
22/02/2012 14:00 13,4 C 43 % 1029,4 hPa 0,0 mm 0,7 km/h (0 Bft) E-NE 67 2 min 0 W/m 1,1 C 13,4 C 3,6 km/h (1 Bft)
22/02/2012 14:10 13,8 C 42 % 1029,4 hPa 0,0 mm 5,0 km/h (1 Bft) N-NE 22 2 min 0 W/m 1,1 C 13,8 C 9,7 km/h (2 Bft)
22/02/2012 14:20 13,7 C 41 % 1029,1 hPa 0,0 mm 1,4 km/h (1 Bft) N 360 2 min 0 W/m 0,7 C 13,7 C 6,1 km/h (2 Bft)
22/02/2012 14:30 13,7 C 40 % 1029,0 hPa 0,0 mm 5,8 km/h (2 Bft) N 360 2 min 0 W/m 0,4 C 13,7 C 11,2 km/h (2 Bft)
22/02/2012 14:40 13,8 C 39 % 1028,8 hPa 0,0 mm 1,8 km/h (1 Bft) N-NE 22 2 min 0 W/m 0,1 C 13,8 C 1,8 km/h (1 Bft)
22/02/2012 14:50 13,6 C 39 % 1028,6 hPa 0,0 mm 5,4 km/h (2 Bft) N-NE 22 2 min 0 W/m -0,1 C 13,6 C 7,2 km/h (2 Bft)
22/02/2012 15:00 13,3 C 40 % 1028,4 hPa 0,0 mm 1,4 km/h (1 Bft) NE 45 2 min 0 W/m -0,0 C 13,3 C 2,9 km/h (1 Bft)
22/02/2012 15:10 13,1 C 39 % 1028,6 hPa 0,0 mm 3,2 km/h (1 Bft) N 360 2 min 0 W/m -0,5 C 13,1 C 10,1 km/h (2 Bft)
22/02/2012 15:20 12,8 C 38 % 1028,2 hPa 0,0 mm 1,1 km/h (1 Bft) N-NE 22 2 min 0 W/m -1,2 C 12,8 C 4,0 km/h (1 Bft)
22/02/2012 15:30 12,8 C 41 % 1028,3 hPa 0,0 mm 13,0 km/h (3 Bft) NO 315 2 min 0 W/m -0,1 C 12,8 C 15,1 km/h (3 Bft)
22/02/2012 15:40 12,4 C 41 % 1028,2 hPa 0,0 mm 2,2 km/h (1 Bft) N-NE 22 2 min 0 W/m -0,5 C 12,4 C 4,3 km/h (1 Bft)
22/02/2012 15:50 12,3 C 42 % 1028,2 hPa 0,0 mm 5,4 km/h (2 Bft) N-NE 22 2 min 0 W/m -0,2 C 12,3 C 5,4 km/h (2 Bft)
22/02/2012 16:00 12,3 C 44 % 1028,3 hPa 0,0 mm 2,9 km/h (1 Bft) NO 315 2 min 0 W/m 0,4 C 12,3 C 9,4 km/h (2 Bft)
22/02/2012 16:10 12,2 C 43 % 1028,3 hPa 0,0 mm 1,1 km/h (1 Bft) N-NO 337 2 min 0 W/m -0,0 C 12,2 C 6,8 km/h (2 Bft)
22/02/2012 16:20 12,0 C 43 % 1028,3 hPa 0,0 mm 0,4 km/h (0 Bft) N-NE 22 2 min 0 W/m -0,2 C 12,0 C 0,4 km/h (0 Bft)
22/02/2012 16:30 11,8 C 42 % 1028,3 hPa 0,0 mm 2,2 km/h (1 Bft) N 360 2 min 0 W/m -0,7 C 11,8 C 3,2 km/h (1 Bft)
22/02/2012 16:40 11,7 C 43 % 1028,1 hPa 0,0 mm 1,4 km/h (1 Bft) NE 45 2 min 0 W/m -0,5 C 11,7 C 4,0 km/h (1 Bft)
22/02/2012 16:50 11,6 C 45 % 1028,0 hPa 0,0 mm 0,0 km/h (0 Bft) NE 45 2 min 0 W/m 0,1 C 11,6 C 0,0 km/h (0 Bft)
22/02/2012 17:00 11,5 C 44 % 1028,0 hPa 0,0 mm 0,0 km/h (0 Bft) NO 315 2 min 0 W/m -0,3 C 11,5 C 0,0 km/h (0 Bft)
22/02/2012 17:10 11,4 C 45 % 1028,0 hPa 0,0 mm 5,4 km/h (2 Bft) NO 315 2 min 0 W/m -0,1 C 11,4 C 11,5 km/h (2 Bft)
22/02/2012 17:20 11,2 C 45 % 1028,0 hPa 0,0 mm 5,0 km/h (1 Bft) NO 315 2 min 0 W/m -0,3 C 11,2 C 8,6 km/h (2 Bft)
22/02/2012 17:30 10,9 C 45 % 1028,1 hPa 0,0 mm 3,6 km/h (1 Bft) NO 315 2 min 0 W/m -0,6 C 10,9 C 3,6 km/h (1 Bft)
22/02/2012 17:40 10,6 C 46 % 1028,2 hPa 0,0 mm 1,8 km/h (1 Bft) N-NE 22 2 min 0 W/m -0,5 C 10,6 C 3,6 km/h (1 Bft)
22/02/2012 17:50 10,2 C 47 % 1028,1 hPa 0,0 mm 0,4 km/h (0 Bft) NO 315 2 min 0 W/m -0,6 C 10,2 C 2,9 km/h (1 Bft)
22/02/2012 18:00 9,7 C 48 % 1028,1 hPa 0,0 mm 0,0 km/h (0 Bft) NO 315 2 min 0 W/m -0,8 C 9,7 C 0,0 km/h (0 Bft)
22/02/2012 18:10 9,1 C 48 % 1028,0 hPa 0,0 mm 0,0 km/h (0 Bft) NO 315 2 min 0 W/m -1,3 C 9,1 C 0,0 km/h (0 Bft)
22/02/2012 18:20 8,6 C 48 % 1028,0 hPa 0,0 mm 0,0 km/h (0 Bft) NO 315 2 min 0 W/m -1,8 C 8,6 C 0,0 km/h (0 Bft)
22/02/2012 18:30 7,9 C 49 % 1028,0 hPa 0,0 mm 0,0 km/h (0 Bft) NO 315 0 min 0 W/m -2,1 C 7,9 C 0,0 km/h (0 Bft)
22/02/2012 18:40 7,2 C 50 % 1028,0 hPa 0,0 mm 0,0 km/h (0 Bft) NO 315 0 min 0 W/m -2,5 C 7,2 C 0,0 km/h (0 Bft)
22/02/2012 18:50 6,5 C 50 % 1027,9 hPa 0,0 mm 0,0 km/h (0 Bft) NO 315 0 min 0 W/m -3,2 C 6,5 C 0,0 km/h (0 Bft)
22/02/2012 19:00 5,8 C 50 % 1028,0 hPa 0,0 mm 0,0 km/h (0 Bft) NO 315 0 min 0 W/m -3,8 C 5,8 C 0,0 km/h (0 Bft)
22/02/2012 19:10 5,2 C 51 % 1028,2 hPa 0,0 mm 0,0 km/h (0 Bft) NO 315 0 min 0 W/m -4,1 C 5,2 C 0,0 km/h (0 Bft)
22/02/2012 19:20 4,8 C 53 % 1028,2 hPa 0,0 mm 0,0 km/h (0 Bft) NO 315 0 min 0 W/m -4,0 C 4,8 C 0,0 km/h (0 Bft)
22/02/2012 19:30 4,3 C 54 % 1028,3 hPa 0,0 mm 0,0 km/h (0 Bft) NO 315 0 min 0 W/m -4,2 C 4,3 C 0,0 km/h (0 Bft)
22/02/2012 19:40 3,8 C 54 % 1028,4 hPa 0,0 mm 0,0 km/h (0 Bft) NO 315 0 min 0 W/m -4,6 C 3,8 C 0,0 km/h (0 Bft)
22/02/2012 19:50 3,4 C 55 % 1028,4 hPa 0,0 mm 0,0 km/h (0 Bft) NO 315 0 min 0 W/m -4,8 C 3,4 C 0,0 km/h (0 Bft)
22/02/2012 20:00 3,0 C 56 % 1028,3 hPa 0,0 mm 0,0 km/h (0 Bft) NO 315 0 min 0 W/m -4,9 C 3,0 C 0,0 km/h (0 Bft)
22/02/2012 20:10 2,8 C 57 % 1028,3 hPa 0,0 mm 0,0 km/h (0 Bft) NO 315 0 min 0 W/m -4,9 C 2,8 C 0,0 km/h (0 Bft)
22/02/2012 20:20 2,5 C 58 % 1028,4 hPa 0,0 mm 0,0 km/h (0 Bft) NO 315 0 min 0 W/m -4,9 C 2,5 C 0,0 km/h (0 Bft)
22/02/2012 20:30 2,3 C 58 % 1028,3 hPa 0,0 mm 0,0 km/h (0 Bft) NO 315 0 min 0 W/m -5,1 C 2,3 C 0,0 km/h (0 Bft)
22/02/2012 20:40 2,1 C 59 % 1028,4 hPa 0,0 mm 0,0 km/h (0 Bft) NO 315 0 min 0 W/m -5,1 C 2,1 C 0,0 km/h (0 Bft)
22/02/2012 20:50 1,8 C 60 % 1028,5 hPa 0,0 mm 0,0 km/h (0 Bft) NO 315 0 min 0 W/m -5,1 C 1,8 C 0,0 km/h (0 Bft)
22/02/2012 21:00 1,5 C 61 % 1028,6 hPa 0,0 mm 0,0 km/h (0 Bft) NO 315 0 min 0 W/m -5,2 C 1,5 C 0,0 km/h (0 Bft)
22/02/2012 21:10 1,4 C 61 % 1028,6 hPa 0,0 mm 0,0 km/h (0 Bft) NO 315 0 min 0 W/m -5,3 C 1,4 C 0,0 km/h (0 Bft)
22/02/2012 21:20 1,7 C 62 % 1028,5 hPa 0,0 mm 0,0 km/h (0 Bft) O-NO 292 0 min 0 W/m -4,8 C 1,7 C 0,0 km/h (0 Bft)
22/02/2012 21:30 1,8 C 62 % 1028,5 hPa 0,0 mm 0,0 km/h (0 Bft) O-NO 292 0 min 0 W/m -4,7 C 1,8 C 0,0 km/h (0 Bft)
22/02/2012 21:40 1,6 C 62 % 1028,5 hPa 0,0 mm 0,0 km/h (0 Bft) O-NO 292 0 min 0 W/m -4,9 C 1,6 C 0,0 km/h (0 Bft)
22/02/2012 21:50 1,5 C 62 % 1028,5 hPa 0,0 mm 0,0 km/h (0 Bft) O-NO 292 0 min 0 W/m -5,0 C 1,5 C 0,0 km/h (0 Bft)
22/02/2012 22:00 1,6 C 63 % 1028,5 hPa 0,0 mm 0,0 km/h (0 Bft) O-NO 292 0 min 0 W/m -4,7 C 1,6 C 0,0 km/h (0 Bft)
22/02/2012 22:10 1,8 C 64 % 1028,5 hPa 0,0 mm 0,0 km/h (0 Bft) O-NO 292 0 min 0 W/m -4,3 C 1,8 C 0,0 km/h (0 Bft)
22/02/2012 22:20 1,8 C 64 % 1028,5 hPa 0,0 mm 0,0 km/h (0 Bft) S-SE 157 0 min 0 W/m -4,3 C 1,8 C 0,0 km/h (0 Bft)
22/02/2012 22:30 1,6 C 64 % 1028,5 hPa 0,0 mm 0,0 km/h (0 Bft) S-SE 157 0 min 0 W/m -4,5 C 1,6 C 0,0 km/h (0 Bft)
22/02/2012 22:40 1,4 C 64 % 1028,6 hPa 0,0 mm 0,0 km/h (0 Bft) S-SE 157 0 min 0 W/m -4,6 C 1,4 C 0,0 km/h (0 Bft)
22/02/2012 22:50 1,2 C 66 % 1028,5 hPa 0,0 mm 0,0 km/h (0 Bft) S-SE 157 0 min 0 W/m -4,4 C 1,2 C 0,0 km/h (0 Bft)
22/02/2012 23:00 1,1 C 67 % 1028,5 hPa 0,0 mm 0,0 km/h (0 Bft) S-SE 157 0 min 0 W/m -4,3 C 1,1 C 0,0 km/h (0 Bft)
22/02/2012 23:10 0,9 C 67 % 1028,5 hPa 0,0 mm 0,0 km/h (0 Bft) E-NE 67 0 min 0 W/m -4,5 C 0,9 C 0,0 km/h (0 Bft)
22/02/2012 23:20 0,8 C 67 % 1028,6 hPa 0,0 mm 0,0 km/h (0 Bft) E-NE 67 0 min 0 W/m -4,6 C 0,8 C 0,0 km/h (0 Bft)
22/02/2012 23:30 0,6 C 67 % 1028,6 hPa 0,0 mm 0,0 km/h (0 Bft) E-NE 67 0 min 0 W/m -4,8 C 0,6 C 0,0 km/h (0 Bft)
22/02/2012 23:40 0,8 C 69 % 1028,7 hPa 0,0 mm 0,0 km/h (0 Bft) E-SE 112 0 min 0 W/m -4,2 C 0,8 C 0,0 km/h (0 Bft)
22/02/2012 23:50 0,6 C 68 % 1028,7 hPa 0,0 mm 0,0 km/h (0 Bft) E 90 0 min 0 W/m -4,6 C 0,6 C 0,0 km/h (0 Bft)
_ Min-Heure 07:20 15:20 18:50 - 23:50 - - - - 07:10 07:20 23:50
Minimum _ -4,5 C 38 % 1027,9 hPa - 0,0 km/h (0 Bft) - - - - -7,0 C -4,5 C 0,0 km/h (0 Bft)
_ Max-Heure 14:40 09:00 11:10 23:50 15:30 - - 18:20 23:50 12:20 14:40 15:30
Maximum _ 13,8 C 84 % 1030,5 hPa 0,0 mm 13,0 km/h
NO (3 Bft)
- - 2 min 0 W/m 1,9 C 13,8 C 15,1 km/h
NO (3 Bft)
Moyenne _ 3,3 C 64 % 1029,0 hPa #0,0 mm 1,1 km/h (0 Bft) NO - #2:06 h 0 W/m -3,2 C 3,3 C 2,1 km/h (1 Bft)
Saint Bonnet de Bellac- Haute Vienne - France